CAPE
3 4 5 5 2 0 2 7 5 1 0 0 0 0 0 0 0 0 0 0 0 0 0 0 0 0 0 0 0 0 0 0 0 0 0 0 4 0 10 0 0 0 0 0 0
4 3 4 3 4 4 5 2 0 3 4 1 0 0 0 0 0 0 0 0 0 0 0 0 0 0 0 0 0 0 0 0 0 0 1 2 7 5 11 11 0 0 0 1 7
2 2 2 1 1 2 3 4 6 2 0 2 0 0 0 0 0 0 0 0 0 0 0 0 0 0 0 0 0 0 0 0 1 6 0 12 6 8 14 13 6 0 0 0 0
4 3 2 1 1 1 2 1 2 4 4 2 2 0 0 0 0 0 0 0 0 0 0 0 0 0 0 0 0 0 0 0 0 0 0 2 4 5 21 21 0 0 0 0 0
7 4 3 3 3 1 1 0 1 0 0 1 2 4 0 0 0 0 0 0 0 0 0 0 0 0 0 0 0 0 0 0 0 0 0 2 1 0 16 2 0 0 0 0 0
3 1 1 3 3 2 1 0 0 0 0 0 6 4 0 0 0 0 0 0 0 0 0 0 0 0 0 0 0 0 0 0 0 0 0 0 0 0 1 0 0 0 0 0 0
5 5 1 1 1 1 0 0 0 0 0 1 7 1 0 0 0 0 0 0 0 0 0 0 0 0 0 0 0 0 0 0 0 0 0 6 0 0 0 0 0 0 0 0 0
0 0 0 2 4 4 0 0 0 0 0 1 4 0 0 0 0 0 0 0 0 0 0 0 0 0 0 0 0 0 0 0 0 0 0 4 0 0 0 0 0 0 0 0 0
13 4 6 5 2 0 0 0 0 0 0 0 0 0 0 0 0 0 0 0 0 0 0 0 0 0 0 0 0 0 0 0 0 0 0 13 0 0 4 0 0 0 0 0 0
10 2 0 0 0 0 0 0 0 0 0 1 0 4 0 0 0 0 0 0 0 0 0 0 0 0 0 0 0 0 0 0 0 0 0 1 4 1 23 0 0 0 0 0 0
6 1 1 1 0 0 0 0 0 0 23 0 0 0 0 0 0 0 0 0 0 0 0 0 0 0 0 0 0 0 0 0 0 0 0 0 0 0 6 0 0 0 0 0 0
0 0 0 0 0 0 0 0 1 0 0 0 0 0 0 0 0 0 0 0 0 0 0 0 0 0 0 0 0 0 0 0 0 0 1 0 0 0 0 0 0 0 0 0 0
0 0 0 0 0 2 0 2 0 8 8 0 0 0 0 0 0 0 0 0 0 0 0 0 0 0 0 0 0 0 0 0 0 0 0 0 0 0 0 0 0 0 0 0 0
0 0 0 0 0 0 12 2 9 19 2 0 0 0 0 0 0 0 0 0 0 0 0 0 0 0 0 0 0 0 0 0 0 0 0 0 0 0 0 0 0 0 0 0 0
0 0 3 3 0 5 12 21 21 21 0 0 1 13 2 0 0 0 1 0 0 0 0 0 0 0 0 0 0 0 0 0 0 0 0 0 0 0 0 0 0 0 0 0 0
0 1 3 3 17 14 31 24 16 16 8 4 22 13 26 20 12 6 23 27 5 0 0 0 0 0 0 0 0 0 0 0 0 0 0 0 0 0 0 0 0 0 0 0 0
0 0 0 4 31 32 52 53 10 12 3 3 6 4 8 4 3 1 7 28 57 6 0 0 0 0 0 0 0 0 0 0 0 0 0 0 0 0 0 0 0 0 0 0 6
0 0 6 45 87 62 60 26 18 35 42 2 7 3 5 8 2 1 32 22 8 16 8 0 0 0 0 0 0 0 0 0 0 0 0 0 0 0 0 0 0 0 0 62 220
0 11 1 39 65 111 104 4 27 72 74 73 44 22 29 38 11 13 18 14 48 6 20 6 0 0 0 0 0 0 0 0 0 0 0 0 0 0 0 0 0 0 0 0 290
1 10 25 9 61 75 101 25 67 74 56 58 20 63 26 23 41 35 46 25 1 0 0 16 0 0 0 0 0 0 0 0 0 0 0 0 0 0 0 0 0 0 0 141 373
1 9 13 0 20 80 35 62 33 17 65 82 26 30 56 50 48 72 37 20 0 0 2 4 32 26 0 2 0 0 0 0 0 0 0 0 0 0 0 0 7 0 20 383 399
2 13 0 5 72 92 17 11 4 54 65 49 51 98 54 34 36 60 26 49 0 0 0 35 33 28 42 8 0 0 0 0 0 0 0 0 0 0 0 1 32 102 261 393 340
7 4 2 6 8 6 9 15 53 78 21 23 35 42 45 59 45 67 47 1 10 0 3 31 3 6 24 22 0 0 0 0 0 0 0 0 0 0 0 2 10 90 311 314 271
7 17 20 13 11 14 9 26 35 63 65 60 52 29 33 33 39 6 0 0 0 5 3 9 4 5 51 35 0 0 0 0 0 1 0 0 0 2 2 4 54 227 338 233 244
12 2 6 9 11 3 1 10 44 60 79 58 50 35 34 26 28 16 0 1 1 1 5 4 0 0 0 43 11 0 0 0 2 0 0 0 0 0 19 2 0 226 278 223 221
1 2 3 3 9 2 15 19 12 14 30 7 32 36 30 26 32 17 19 17 12 2 2 10 4 1 0 0 9 2 0 0 0 0 0 0 0 0 0 0 100 166 239 238 204
11 7 18 2 8 4 9 7 4 4 30 37 12 14 29 23 24 34 24 10 1 0 0 14 29 7 0 1 9 6 0 1 0 0 0 0 21 1 1 1 2 52 289 257 187
CIN
0 0 0 0 0 0 0 0 0 0 0 0 0 0 0 0 0 0 0 0 0 0 0 0 0 0 0 0 0 0 0 0 0 0 0 0 -13 -4 -8 0 0 0 0 0 0
0 0 0 0 0 0 0 0 0 0 -1 -1 0 0 0 0 0 0 0 0 0 0 0 0 0 0 0 0 0 0 0 0 0 0 -11 -8 -9 -7 -9 -11 0 0 0 -2 -5
0 0 0 0 0 0 0 0 0 0 0 -1 0 0 0 0 0 0 0 0 0 0 0 0 0 0 0 0 0 0 0 0 -4 -13 -7 -10 -4 -15 -11 -8 -6 0 0 0 0
0 0 0 0 0 0 0 0 0 0 0 0 0 0 0 0 0 0 0 0 0 0 0 0 0 0 0 0 0 0 0 0 0 0 0 -5 -9 -14 -10 -7 -1 0 0 0 0
-1 -1 0 0 0 0 0 0 0 0 0 0 0 -1 0 0 0 0 0 0 0 0 0 0 0 0 0 0 0 0 0 0 0 0 0 -3 -3 0 -7 -5 0 0 0 0 0
-3 0 0 0 0 0 0 0 0 0 0 0 0 -1 0 0 0 0 0 0 0 0 0 0 0 0 0 0 0 0 0 0 0 0 0 -3 -2 0 -1 0 0 0 0 0 0
-1 0 0 0 0 0 0 0 0 0 0 0 0 -1 0 0 0 0 0 0 0 0 0 0 0 0 0 0 0 0 0 0 0 0 0 -6 -1 0 0 0 0 0 0 0 0
-5 0 0 0 0 0 0 0 0 0 0 0 0 0 0 0 0 0 0 0 0 0 0 0 0 0 0 0 0 0 0 0 0 0 0 -7 0 0 0 0 0 -2 0 0 0
-2 -3 -1 -1 0 0 0 0 0 0 0 0 0 -1 0 0 0 0 0 0 0 0 0 0 0 0 0 0 0 0 0 0 0 0 0 -7 0 0 -1 0 -2 0 0 0 0
-1 -1 0 0 0 0 0 0 0 0 0 -1 0 -1 0 0 0 0 0 0 0 0 0 0 0 0 0 0 0 0 0 0 0 0 0 -3 -3 -10 -8 0 0 0 -1 0 0
0 0 0 -1 0 0 0 0 0 0 -2 0 0 0 0 0 0 0 0 0 0 0 0 0 0 0 0 0 0 0 0 0 0 0 -9 0 0 0 -9 0 0 0 0 0 0
0 0 0 0 0 0 0 0 -1 0 0 0 0 0 0 0 0 0 0 0 0 0 0 0 0 0 0 0 0 0 0 0 0 0 -3 0 0 0 0 0 0 0 0 0 0
0 0 0 0 0 -7 0 -2 0 -1 -1 0 0 0 0 0 0 0 0 0 0 0 0 0 0 0 0 0 0 0 0 0 0 0 0 0 0 0 0 0 0 0 0 0 0
0 0 0 0 0 -1 -2 -1 -1 -1 -1 0 0 0 0 0 0 0 0 0 0 0 0 0 0 0 0 0 0 0 0 0 0 0 0 0 0 0 0 0 0 0 0 0 0
0 0 0 0 0 -1 -3 -1 -2 -2 0 0 -1 -17 -4 0 -1 -3 -3 0 0 0 0 0 0 0 0 0 0 0 0 0 0 0 0 0 0 0 0 0 0 0 0 0 0
0 0 -1 -1 -6 -2 -1 -2 -2 -1 -3 -12 -12 -27 -13 -6 -8 -6 -5 -5 -4 0 0 0 0 0 0 0 0 0 0 0 0 0 0 0 0 0 0 0 0 0 0 0 0
0 0 -1 -1 -10 -7 -8 -2 0 -2 -32 -32 -4 -10 -24 -9 -13 -14 -8 -9 -5 -4 0 0 0 0 0 0 0 0 0 0 0 0 0 0 0 0 0 0 0 0 0 0 -52
0 0 -29 -37 -13 -18 -3 -3 -1 -13 -7 -11 -9 -9 -5 -7 -9 -9 -7 -6 -13 -8 -13 0 0 0 0 0 0 0 0 0 0 0 0 0 0 0 0 0 0 0 0 -35 -70
0 -4 -2 -58 -18 -17 -3 0 -17 -4 -4 -4 -5 -5 -6 -21 -11 -13 -11 -11 -4 -40 -5 -5 0 0 0 0 0 0 0 0 0 0 0 0 0 0 0 0 0 0 0 0 -65
-3 -2 -23 0 -14 -20 -1 -7 -4 -5 -6 -5 -7 -5 -9 -6 -8 -9 -8 -34 -12 0 0 -33 -5 0 0 0 0 0 0 0 0 0 0 0 0 0 0 0 0 0 -5 -34 -77
-1 -2 -13 0 -23 -1 -3 -3 -5 -4 -4 -5 -5 -5 -8 -7 -9 -6 -10 -6 0 0 -3 -2 -17 -5 0 -5 0 0 0 0 0 0 0 0 0 0 0 0 -5 0 -4 -41 -73
-2 -5 0 -2 -3 -2 -10 -3 -4 -4 -3 -5 -14 -5 -4 -5 -5 -3 -41 -5 0 0 0 -15 -2 -10 -13 -12 0 0 0 0 0 0 0 0 0 0 0 -36 -26 -3 -23 -60 -91
-3 -3 -3 -7 0 0 -2 -6 -9 -7 -17 -6 -8 -9 -6 -5 -8 -4 -5 0 0 0 0 -7 -12 -36 -53 -8 0 0 0 -1 0 0 0 0 0 0 0 -38 -51 -3 -28 -67 -106
-3 -5 -3 -4 -2 -1 -1 -3 -4 -5 -4 -5 -9 -7 -3 -6 -15 -24 0 0 0 0 0 0 0 -35 -22 -13 0 0 0 0 0 -6 -3 0 0 -2 -3 -2 -33 -27 -53 -77 -63
-2 -1 -2 -2 -1 -1 -5 -4 -4 -3 -2 -3 -4 -9 -10 -5 -5 -8 0 -4 0 -1 0 0 -1 0 0 -33 -11 0 0 -1 -12 -7 0 0 0 0 -5 -1 0 -39 -55 -51 -62
0 -1 -3 -2 -1 -3 -2 -1 -2 -3 -1 -13 -2 -4 -4 -4 -5 -4 -5 -3 -2 -4 0 -1 -1 -3 0 0 -53 -21 0 0 0 0 0 0 0 0 0 0 -37 -60 -40 -44 -60
-2 -3 0 -9 -2 -2 -2 -1 -3 -2 -3 -2 -4 -7 -6 -4 -15 -5 -5 -4 -1 0 0 -1 -17 -7 0 -3 -20 -22 -3 -13 -2 0 0 0 -7 -9 -27 -10 -79 -133 -20 -19 -40
Wind_Speed
31 31 31 32 32 33 34 34 35 35 36 36 37 38 40 41 43 38 38 31 23 20 20 18 17 16 19 22 21 20 30 32 30 26 29 23 21 15 16 22 29 29 28 28 27
32 32 33 33 33 33 34 35 35 36 36 36 37 38 39 40 44 47 40 29 26 22 23 21 21 19 21 22 22 26 37 36 27 27 33 36 38 35 30 21 27 30 31 25 27
33 34 34 35 35 36 35 35 35 36 36 36 37 38 39 39 42 41 27 28 32 32 33 30 27 23 28 26 24 27 36 32 36 34 44 46 47 45 39 41 38 37 35 36 34
34 34 35 36 37 37 37 37 37 37 37 37 37 37 38 33 37 22 23 25 30 33 35 34 32 32 33 33 29 38 32 34 43 48 52 55 56 53 44 41 40 38 37 37 38
34 35 36 37 37 38 39 39 39 39 38 37 37 36 35 33 35 35 24 28 32 30 35 37 37 38 42 38 37 41 39 43 47 51 55 53 54 57 48 38 41 44 38 38 37
35 36 37 38 38 39 39 39 39 39 39 38 36 34 36 47 30 32 35 36 33 33 31 34 39 38 45 43 43 43 50 50 52 55 49 50 57 48 43 36 43 41 37 41 41
35 36 37 37 38 38 39 39 40 40 40 39 36 34 41 44 37 38 37 38 38 39 39 36 37 39 42 51 45 57 61 63 57 47 44 43 56 50 37 38 47 51 41 42 38
36 37 38 38 38 38 38 39 40 40 39 37 32 33 46 35 38 39 38 39 36 38 40 37 35 41 42 42 46 50 51 58 38 37 40 37 59 43 46 46 44 45 38 47 35
37 38 38 38 38 39 41 43 41 37 31 25 25 27 43 24 29 31 34 38 37 38 37 37 37 38 36 41 47 43 46 37 45 32 34 33 47 46 40 46 48 47 43 39 39
38 39 39 39 39 40 40 42 35 30 22 19 24 29 31 34 26 24 24 31 35 34 36 34 34 40 39 35 47 35 37 44 51 30 30 40 42 50 44 43 46 47 48 39 38
40 39 39 39 40 41 42 37 27 27 22 30 34 31 40 33 31 35 30 32 30 34 41 33 38 39 45 35 31 31 41 41 29 25 31 39 47 55 43 42 44 47 47 43 44
40 40 41 41 41 39 31 32 31 31 42 41 43 43 42 40 46 41 35 37 35 41 38 40 46 50 34 29 29 38 42 41 52 49 42 43 45 46 43 46 45 48 47 46 44
40 40 41 41 40 30 31 31 27 29 40 46 41 39 35 29 39 39 33 34 40 42 42 47 47 36 37 39 37 31 30 29 44 45 40 39 48 33 36 31 35 34 34 28 23
41 40 39 39 30 32 28 26 26 28 40 45 24 23 18 23 33 25 28 34 40 46 42 48 51 48 41 44 37 40 26 30 41 42 43 31 51 22 19 41 44 44 38 33 30
42 39 36 28 28 27 28 26 26 22 41 18 17 11 17 24 28 20 21 26 39 42 37 54 45 47 53 40 35 45 33 34 31 33 40 33 26 24 16 41 37 25 18 15 12
40 36 30 20 14 23 25 23 20 24 32 18 15 20 22 23 26 26 23 24 29 37 46 53 48 45 53 52 38 40 36 36 32 33 38 20 20 34 42 38 34 28 19 11 12
20 18 21 20 25 24 20 19 19 21 19 21 24 28 27 31 32 31 33 33 36 36 46 51 52 49 48 48 51 37 34 36 35 31 24 24 24 30 34 29 19 34 31 13 13
12 9 17 20 20 20 11 15 18 24 24 30 32 32 35 34 33 30 32 38 36 38 47 49 56 52 46 47 46 39 35 32 29 25 29 14 19 26 20 20 14 26 20 7 13
9 15 17 20 16 17 13 13 22 27 29 28 31 30 28 23 23 25 31 35 28 27 38 49 55 43 51 43 43 47 45 32 35 21 32 29 16 16 4 16 3 26 6 5 7
15 15 16 16 15 12 17 23 26 26 28 29 30 25 28 29 28 27 30 23 29 29 32 37 51 47 43 46 50 54 36 39 42 39 27 27 24 24 15 22 13 2 4 5 4
14 17 18 14 14 15 14 27 30 30 29 27 30 31 29 27 27 28 24 24 23 30 30 36 37 43 49 52 50 50 48 45 38 36 35 35 27 17 20 16 19 7 5 3 8
14 17 20 16 16 18 15 12 3 19 27 27 25 24 26 28 29 31 23 24 22 27 32 34 27 38 45 44 47 47 44 40 40 32 35 22 21 11 14 16 23 16 6 4 10
16 15 17 18 21 18 15 12 16 17 19 26 25 26 26 25 24 21 23 24 24 23 24 24 34 34 32 39 45 52 52 42 48 33 32 28 18 8 10 10 18 21 1 6 9
17 20 17 16 17 16 15 12 10 17 18 21 26 24 24 26 22 24 24 21 23 24 28 32 36 37 32 38 42 49 50 48 43 39 27 28 13 7 5 9 10 14 4 7 12
18 21 19 17 15 12 10 9 7 9 13 19 20 23 25 28 28 25 23 26 24 24 22 30 47 45 28 30 44 46 47 41 42 38 35 19 23 8 5 11 14 13 4 6 11
21 20 17 12 13 13 15 13 12 8 10 16 22 25 26 27 28 28 26 24 21 20 21 27 50 46 34 31 35 50 52 47 38 38 29 22 21 20 19 12 10 15 10 2 12
18 15 19 16 16 16 14 12 7 5 5 6 20 25 24 25 30 31 30 30 28 26 25 27 34 37 38 34 34 39 52 46 42 41 33 23 10 11 11 13 14 16 18 16 5
Wind_Direction
316 316 315 313 311 307 305 303 300 299 297 297 296 294 289 288 283 280 275 276 273 275 283 284 277 267 270 268 263 277 277 276 280 287 292 300 305 311 314 310 306 312 315 316 321
316 315 313 312 310 309 307 305 303 301 299 298 296 294 291 288 281 273 272 272 270 271 272 271 269 268 263 267 262 262 268 272 282 289 291 291 290 293 300 304 305 307 310 316 324
315 313 312 311 308 307 306 305 303 301 299 298 297 295 293 291 282 278 281 273 268 268 268 269 269 265 265 264 260 262 266 276 278 285 281 286 285 288 292 289 298 303 306 307 314
316 314 313 310 307 306 304 303 302 300 299 296 295 294 291 289 275 290 286 282 276 272 262 261 259 260 263 262 263 267 264 273 279 280 282 278 279 285 285 290 294 300 302 306 308
320 318 316 313 310 307 305 302 301 300 299 298 296 295 292 279 272 286 288 284 279 276 262 255 253 255 257 263 267 264 269 276 279 281 280 283 281 283 284 290 292 294 300 301 305
324 321 318 315 312 309 306 304 302 300 298 297 297 296 286 275 284 281 281 276 273 273 270 260 256 256 263 263 262 269 274 276 277 278 281 282 282 285 285 288 288 293 297 296 297
330 328 324 321 318 315 311 307 304 300 297 296 294 291 281 274 283 283 279 276 272 269 267 267 263 261 264 265 267 269 272 271 273 278 281 287 281 280 286 289 288 285 293 295 292
332 329 326 323 321 320 317 312 308 304 299 297 294 289 278 286 283 279 277 274 272 267 264 266 271 262 261 271 269 268 270 272 264 271 276 279 281 287 287 287 287 284 289 291 291
334 331 328 325 323 320 315 311 307 307 305 305 297 289 284 298 283 284 274 272 272 267 263 260 264 263 262 261 266 265 266 257 279 272 277 270 279 285 289 286 285 284 289 290 288
337 335 331 328 325 321 318 310 311 312 312 308 296 291 287 284 289 289 289 280 273 266 260 251 257 256 255 248 255 248 261 271 276 257 277 279 279 284 287 285 286 285 285 289 289
339 337 335 331 326 322 318 318 314 308 295 291 294 283 286 290 290 282 283 281 274 262 251 247 246 243 219 225 238 255 270 274 254 248 280 282 284 278 288 289 287 287 287 289 289
343 340 336 333 329 325 324 319 315 309 295 292 288 283 282 284 278 276 278 270 265 260 253 245 241 220 254 242 244 260 267 270 270 274 284 286 286 286 288 289 291 289 288 289 291
346 341 336 334 331 331 327 321 327 320 297 293 288 286 283 282 278 276 270 264 261 260 252 245 230 253 247 253 254 247 249 238 273 277 283 289 287 288 292 289 294 290 288 281 276
347 343 340 339 335 335 330 338 331 329 299 295 292 299 291 290 282 282 275 268 260 256 256 253 252 249 248 249 246 257 247 269 275 276 279 289 287 276 287 290 290 288 292 293 292
350 347 344 348 343 341 341 342 338 332 290 310 307 339 307 286 295 290 292 271 262 258 253 251 249 245 247 237 247 225 263 267 273 280 283 285 288 250 292 294 298 302 294 284 260
357 356 360 18 21 1 351 348 341 310 290 312 321 311 295 293 286 286 283 280 276 263 256 252 253 250 246 248 250 255 258 264 272 277 276 275 278 249 270 296 302 317 312 287 261
4 23 29 26 5 5 6 360 329 305 326 315 309 308 298 291 286 283 275 272 265 260 253 251 249 249 247 241 244 243 246 252 262 263 249 287 287 235 294 288 270 286 262 322 309
354 32 48 32 22 23 53 21 332 328 327 312 306 307 295 292 283 281 275 269 269 265 259 248 244 241 240 241 230 234 227 241 246 272 279 260 276 295 316 320 330 263 187 352 289
335 57 53 40 46 47 86 47 325 325 326 315 305 305 299 306 294 287 278 274 274 280 259 251 248 244 237 240 236 228 232 219 258 262 274 278 289 314 299 319 351 208 339 334 319
39 49 58 53 62 71 18 301 318 334 325 299 295 302 307 298 296 287 282 285 278 276 265 260 250 240 238 237 239 231 230 231 241 252 263 269 282 299 320 296 291 329 39 349 40
49 51 55 57 70 58 57 330 315 322 317 305 289 292 293 303 285 282 285 286 280 275 263 257 256 243 234 230 229 221 228 230 239 246 254 259 281 312 295 286 272 292 309 353 104
53 51 44 50 44 48 44 29 279 260 287 285 291 271 280 283 276 268 284 287 282 278 258 248 257 240 234 232 228 224 226 220 231 236 248 263 276 318 314 286 242 269 296 101 111
45 51 58 51 40 34 29 24 30 310 262 281 281 277 277 279 286 287 290 284 274 279 262 255 238 234 227 224 221 221 222 225 228 240 238 249 290 309 307 282 252 241 319 109 112
49 44 52 48 44 34 30 39 46 285 268 278 272 281 274 279 289 277 281 276 272 273 258 244 233 226 221 228 215 217 216 222 222 232 236 242 253 309 294 294 271 247 247 114 113
50 44 44 36 31 30 29 28 31 280 292 262 258 286 272 279 273 277 269 261 265 251 268 241 220 218 240 235 218 217 215 217 218 227 234 238 245 255 277 285 266 246 213 120 110
41 40 36 24 39 36 42 44 42 292 268 265 285 284 281 273 274 264 268 254 254 269 272 241 217 214 230 240 231 217 217 218 221 223 233 242 245 250 261 283 272 237 231 208 114
46 47 39 36 39 37 41 33 10 353 86 227 270 283 278 276 282 270 258 257 255 257 255 230 219 218 224 227 218 217 212 215 219 220 226 232 250 254 261 261 258 248 236 240 100